Regional Weather Roundup
Issued by NWS Kansas City/Pleasant Hill, MO

Home | Current Version | Previous Version | Text Only | Print | Product List | Glossary On
Versions: 1 2 3 4 5 6 7 8 9 10 11 12 13 14 15 16 17 18 19 20 21 22 23 24 25 26 27 28 29 30 31 32 33 34 35 36 37 38 39 40 41 42 43 44 45 46 47 48 49 50
000
ASUS43 KEAX 251911
RWREAX

WEATHER ROUNDUP FOR EASTERN KANSAS AND NORTHWEST MISSOURI
NATIONAL WEATHER SERVICE KANSAS CITY/PLEASANT HILL MO
200 PM CDT SAT OCT 25 2014

KSZ040-057-103>105-MOZ028-029-037-043-252000-
...KANSAS CITY METROPOLITAN AREA...

CITY           SKY/WX    TMP DP  RH WIND       PRES   REMARKS
K.C. INTL      MOSUNNY   77  56  48 E7        30.05F
K.C. DOWNTOWN  SUNNY     78  59  51 VRB5      30.04F
LEES SUMMIT    SUNNY     77  57  50 SE5       30.06F
OLATHE - IXD   SUNNY     79  58  48 VRB6      30.06F
OLATHE - OJC   SUNNY     78  60  53 E6        30.05F
LAWRENCE       SUNNY     75  58  55 SE6       30.05F

$$

MOZ001>008-011>017-020>025-030>033-038>040-044>046-053-054-252000-
...NORTHERN AND CENTRAL MISSOURI...

CITY           SKY/WX    TMP DP  RH WIND       PRES   REMARKS
ST. JOSEPH     SUNNY     77  50  38 VRB3      30.05F
MOSBY          CLEAR     77  50  38 CALM      30.05S
WHITEMAN AFB   SUNNY     74  65  71 E3        30.04F
CLINTON        HAZE      77  64  65 CALM      30.05F VSB 3/4
SEDALIA        SUNNY     76  64  66 CALM      30.06F
WARSAW         NOT AVBL
MARSHALL       SUNNY     77  61  57 CALM      30.05F
CHILLICOTHE      N/A     77  51  40 CALM      30.06F
MOBERLY        SUNNY     81  46  30 CALM      30.05F
KIRKSVILLE     SUNNY     76  50  40 N6        30.05F

$$

MOZ041-047>049-056>058-063>065-088>090-097-252000-
...EASTERN AND SOUTHERN MISSOURI...

CITY           SKY/WX    TMP DP  RH WIND       PRES   REMARKS
ST. LOUIS INTL MOSUNNY   79  58  48 NW6       30.03S
SPIRIT OF STL  MOSUNNY   80  56  43 N5        30.01F
COLUMBIA       SUNNY     78  61  55 VRB3      30.05F
JEFFERSON CITY SUNNY     78  62  57 CALM      30.03F
MEXICO         SUNNY     79  63  57 CALM      30.04F
HANNIBAL       SUNNY     81  43  26 N8        30.04F
ROLLA          SUNNY     77  62  59 NW6       30.03F
LEBANON        SUNNY     81  61  50 NW7       30.06F
OSAGE BEACH    SUNNY     79  63  57 W5        30.04F
SPRINGFIELD    SUNNY     81  64  56 VRB3      30.05F
BRANSON        SUNNY     82  63  51 NW6       30.07F
NEVADA         SUNNY     81  64  57 CALM      30.05F
JOPLIN         SUNNY     80  64  58 VRB5      30.05F
WEST PLAINS    SUNNY     81  62  52 NW8       30.06F

$$

IAZ060-094-KSZ022-034>040-054-083-096-NEZ052-066-093-252000-
...KANSAS...SOUTHEAST NEBRASKA AND IOWA...

CITY           SKY/WX    TMP DP  RH WIND       PRES   REMARKS
TOPEKA         SUNNY     79  61  53 E5        30.04F
MANHATTAN      SUNNY     81  65  58 NE9       30.03F
EMPORIA        SUNNY     82  63  52 SE6       30.03F
CHANUTE        SUNNY     82  64  54 CALM      30.04F
WICHITA        SUNNY     88  60  38 S9        30.03F
OMAHA          MOSUNNY   73  40  30 CALM      30.09F
LINCOLN        SUNNY     72  44  36 NE10      30.09F
FALLS CITY     SUNNY     76  51  41 SE5       30.06F
LAMONI         SUNNY     73  46  38 NE5       30.08F
DES MOINES     SUNNY     71  37  28 NE10      30.08F

$$




USA.gov is the U.S. government's official web portal to all federal, state and local government web resources and services.